| time (UTC) | temp C | wind direction | speed KPH | gust KPH | rain 1hr cm | rain 24hr cm | rain mn cm | humidity % | barometer mb |
| 20260902191532 | 13 | 110 | 6.4 | 14.5 | 0.00 | 0.00 | 0.00 | 74 | 1009.3 |
| 20260902190034 | 14 | 127 | 9.7 | 24.1 | 0.00 | 0.00 | 0.00 | 74 | 1009.5 |
| 20260902184648 | 14 | 65 | 3.2 | 11.3 | 0.00 | 0.00 | 0.00 | 76 | 1009.5 |
| 20260902183031 | 14 | 327 | 1.6 | 8.0 | 0.00 | 0.00 | 0.00 | 76 | 1009.6 |
| 20260902174530 | 13 | 302 | 3.2 | 12.9 | 0.00 | 0.00 | 0.00 | 75 | 1009.5 |
| 20260902173108 | 15 | 281 | 4.8 | 11.3 | 0.00 | 0.00 | 0.00 | 73 | 1009.4 |
| 20260902171534 | 15 | 287 | 3.2 | 9.7 | 0.00 | 0.00 | 0.00 | 72 | 1009.5 |
| 20260902164534 | 16 | 302 | 3.2 | 11.3 | 0.00 | 0.00 | 0.00 | 74 | 1009.7 |
| 20260902163031 | 15 | 355 | 3.2 | 8.0 | 0.00 | 0.00 | 0.00 | 76 | 1009.9 |
| 20260902161534 | 15 | 358 | 4.8 | 8.0 | 0.00 | 0.00 | 0.00 | 77 | 1010.2 |
| 20260902160031 | 13 | 294 | 1.6 | 6.4 | 0.00 | 0.00 | 0.00 | 80 | 1010.3 |
| 20260902154534 | 13 | 263 | 0.0 | 6.4 | 0.00 | 0.00 | 0.00 | 81 | 1010.5 |
| 20260902153035 | 13 | 220 | 0.0 | 6.4 | 0.00 | 0.00 | 0.00 | 85 | 1010.5 |
| 20260902151536 | 12 | 181 | 3.2 | 8.0 | 0.00 | 0.00 | 0.00 | 88 | 1010.5 |
| 20260902150104 | 11 | 180 | 1.6 | 4.8 | 0.00 | 0.00 | 0.00 | 89 | 1010.6 |
| 20260902144530 | 10 | 180 | 0.0 | 6.4 | 0.00 | 0.00 | 0.00 | 90 | 1010.8 |
| 20260902143028 | 8 | 165 | 6.4 | 9.7 | 0.00 | 0.00 | 0.00 | 90 | 1010.9 |
| 20260902141532 | 8 | 186 | 3.2 | 6.4 | 0.00 | 0.00 | 0.00 | 90 | 1010.9 |
| 20260902140036 | 7 | 176 | 3.2 | 8.0 | 0.00 | 0.00 | 0.00 | 90 | 1011.1 |
| 20260902134532 | 7 | 169 | 4.8 | 8.0 | 0.00 | 0.00 | 0.00 | 89 | 1011.1 |
| 20260902133034 | 7 | 189 | 3.2 | 6.4 | 0.00 | 0.00 | 0.00 | 89 | 1011.0 |
| 20260902131538 | 6 | 166 | 3.2 | 6.4 | 0.00 | 0.00 | 0.00 | 88 | 1011.1 |
| 20260902130032 | 7 | 167 | 3.2 | 8.0 | 0.00 | 0.00 | 0.00 | 86 | 1011.1 |
| 20260902123038 | 7 | 172 | 4.8 | 9.7 | 0.00 | 0.00 | 0.00 | 85 | 1011.2 |
| 20260902121532 | 7 | 167 | 3.2 | 8.0 | 0.00 | 0.00 | 0.00 | 84 | 1011.3 |
| 20260902120029 | 8 | 117 | 1.6 | 6.4 | 0.00 | 0.00 | 0.00 | 82 | 1011.3 |
| 20260902114531 | 10 | 129 | 3.2 | 9.7 | 0.00 | 0.00 | 0.00 | 82 | 1011.4 |
| 20260902113035 | 10 | 42 | 8.0 | 17.7 | 0.00 | 0.00 | 0.00 | 83 | 1011.3 |
| 20260902111536 | 10 | 53 | 6.4 | 12.9 | 0.00 | 0.00 | 0.00 | 84 | 1011.2 |
| 20260902110036 | 10 | 51 | 8.0 | 14.5 | 0.00 | 0.00 | 0.00 | 86 | 1011.1 |
| 20260902104534 | 8 | 76 | 6.4 | 12.9 | 0.00 | 0.00 | 0.00 | 87 | 1011.3 |
| 20260902103029 | 7 | 104 | 4.8 | 11.3 | 0.00 | 0.00 | 0.00 | 87 | 1011.4 |
| 20260902100105 | 8 | 140 | 3.2 | 9.7 | 0.00 | 0.00 | 0.00 | 87 | 1011.5 |
| 20260902094610 | 8 | 229 | 1.6 | 11.3 | 0.00 | 0.00 | 0.00 | 86 | 1011.7 |
| 20260902090031 | 8 | 190 | 3.2 | 8.0 | 0.00 | 0.00 | 0.00 | 84 | 1011.8 |
| 20260902084535 | 8 | 208 | 3.2 | 11.3 | 0.00 | 0.00 | 0.00 | 83 | 1011.7 |
| 20260902083036 | 9 | 147 | 0.0 | 6.4 | 0.00 | 0.00 | 0.00 | 82 | 1011.7 |
| 20260902081535 | 10 | 194 | 1.6 | 8.0 | 0.00 | 0.00 | 0.00 | 82 | 1011.9 |
| 20260902080032 | 10 | 140 | 4.8 | 9.7 | 0.00 | 0.00 | 0.00 | 80 | 1011.9 |
| 20260902074530 | 10 | 96 | 1.6 | 8.0 | 0.00 | 0.00 | 0.00 | 77 | 1012.0 |
| 20260902070030 | 12 | 302 | 6.4 | 14.5 | 0.00 | 0.00 | 0.00 | 74 | 1012.2 |
| 20260902064532 | 13 | 288 | 8.0 | 25.7 | 0.00 | 0.00 | 0.00 | 74 | 1012.3 |
| 20260902063035 | 13 | 288 | 8.0 | 35.4 | 0.00 | 0.00 | 0.00 | 73 | 1012.5 |
| 20260902061537 | 13 | 270 | 8.0 | 27.4 | 0.00 | 0.00 | 0.00 | 73 | 1012.6 |
| 20260902060036 | 13 | 296 | 9.7 | 22.5 | 0.00 | 0.00 | 0.00 | 72 | 1012.7 |
| 20260902053036 | 13 | 291 | 8.0 | 22.5 | 0.00 | 0.00 | 0.00 | 73 | 1012.6 |
| 20260902051534 | 13 | 268 | 8.0 | 19.3 | 0.00 | 0.00 | 0.00 | 73 | 1012.4 |
| 20260902050034 | 13 | 287 | 11.3 | 22.5 | 0.00 | 0.00 | 0.00 | 73 | 1012.5 |
| 20260902044534 | 13 | 278 | 9.7 | 25.7 | 0.00 | 0.00 | 0.00 | 72 | 1012.3 |
| 20260902043108 | 13 | 296 | 11.3 | 25.7 | 0.00 | 0.00 | 0.00 | 72 | 1012.1 |
| 20260902041536 | 13 | 313 | 9.7 | 25.7 | 0.00 | 0.00 | 0.00 | 72 | 1012.3 |
| 20260902040034 | 13 | 316 | 9.7 | 22.5 | 0.00 | 0.00 | 0.00 | 71 | 1012.0 |
| 20260902034531 | 13 | 279 | 6.4 | 17.7 | 0.00 | 0.00 | 0.00 | 70 | 1011.8 |
| 20260902033106 | 13 | 301 | 4.8 | 12.9 | 0.00 | 0.00 | 0.00 | 70 | 1011.5 |
| 20260902031644 | 13 | 299 | 6.4 | 19.3 | 0.00 | 0.00 | 0.00 | 68 | 1011.4 |
| 20260902030030 | 14 | 324 | 4.8 | 12.9 | 0.00 | 0.00 | 0.00 | 67 | 1011.5 |
| 20260902024531 | 14 | 260 | 9.7 | 29.0 | 0.00 | 0.00 | 0.00 | 67 | 1011.8 |
| 20260902023031 | 14 | 259 | 6.4 | 17.7 | 0.00 | 0.00 | 0.00 | 67 | 1011.5 |
| 20260902021607 | 15 | 270 | 8.0 | 19.3 | 0.00 | 0.00 | 0.00 | 65 | 1011.6 |
| 20260902020035 | 15 | 266 | 4.8 | 19.3 | 0.00 | 0.00 | 0.00 | 64 | 1011.7 |
| 20260902014535 | 15 | 251 | 6.4 | 27.4 | 0.00 | 0.00 | 0.00 | 63 | 1011.5 |
| 20260902013037 | 16 | 267 | 4.8 | 20.9 | 0.00 | 0.00 | 0.00 | 63 | 1011.4 |
| 20260902010031 | 17 | 289 | 6.4 | 29.0 | 0.00 | 0.00 | 0.00 | 63 | 1011.1 |
| 20260902004534 | 17 | 291 | 9.7 | 25.7 | 0.00 | 0.00 | 0.00 | 64 | 1010.9 |
| 20260902003030 | 17 | 311 | 9.7 | 27.4 | 0.00 | 0.00 | 0.00 | 64 | 1010.8 |
| 20260902000031 | 17 | 331 | 11.3 | 25.7 | 0.00 | 0.00 | 0.00 | 65 | 1010.8 |
| 20260901234542 | 17 | 1 | 12.9 | 25.7 | 0.00 | 0.00 | 0.00 | 65 | 1010.9 |
| 20260901233035 | 18 | 339 | 11.3 | 25.7 | 0.00 | 0.00 | 0.00 | 63 | 1010.7 |
| 20260901231536 | 19 | 10 | 16.1 | 30.6 | 0.00 | 0.00 | 0.00 | 61 | 1010.6 |
| 20260901230035 | 20 | 18 | 12.9 | 22.5 | 0.00 | 0.00 | 0.00 | 60 | 1010.3 |
| 20260901224533 | 20 | 355 | 16.1 | 29.0 | 0.00 | 0.00 | 0.00 | 58 | 1010.2 |
| 20260901223035 | 21 | 344 | 12.9 | 22.5 | 0.00 | 0.00 | 0.00 | 58 | 1010.2 |
| 20260901221531 | 21 | 345 | 9.7 | 17.7 | 0.00 | 0.00 | 0.00 | 59 | 1010.2 |
| 20260901220108 | 20 | 21 | 14.5 | 29.0 | 0.00 | 0.00 | 0.00 | 59 | 1010.2 |
| 20260901214532 | 20 | 28 | 17.7 | 27.4 | 0.00 | 0.00 | 0.00 | 59 | 1010.3 |
| 20260901213035 | 20 | 16 | 17.7 | 25.7 | 0.00 | 0.00 | 0.00 | 59 | 1010.5 |
| 20260901211605 | 20 | 8 | 14.5 | 24.1 | 0.00 | 0.00 | 0.00 | 59 | 1010.6 |
| 20260901210030 | 20 | 7 | 14.5 | 24.1 | 0.00 | 0.00 | 0.00 | 59 | 1010.7 |
| 20260901204534 | 20 | 12 | 14.5 | 25.7 | 0.00 | 0.00 | 0.00 | 58 | 1010.8 |
| 20260901203036 | 20 | 19 | 14.5 | 25.7 | 0.00 | 0.00 | 0.00 | 58 | 1011.0 |
| 20260901201535 | 20 | 360 | 12.9 | 22.5 | 0.00 | 0.00 | 0.00 | 59 | 1011.2 |
| 20260901200032 | 19 | 10 | 14.5 | 22.5 | 0.00 | 0.00 | 0.00 | 59 | 1011.4 |
| 20260901194534 | 20 | 8 | 14.5 | 24.1 | 0.00 | 0.00 | 0.00 | 59 | 1011.5 |